Back to catalog

THORAD DELTA 1 DEB

AliveLEO
NORAD 42628·DEBRIS·🇺🇸 United States

Launched Nov 15, 1974 from Vandenberg Space Force Base

Loading…

Next Passes (next 24 hours)

TLE

AgingSource: Space-Track

Epoch: Sep 8, 2026, 22:04 UTC

1 42628U 74089GV  26251.91980753 -.00000254  00000-0 -22308-2 0  9998
2 42628 101.1407 118.2924 0258105 305.0731  52.6358 12.06961486522916

Track THORAD DELTA 1 DEB in real time with AllMySat

Download on the App Store